Temp
35 36 37 39 39 39 38 38 39 39 38 37 37 36 36 36 36 36 36 35 36 37 37 37 37 37 36 34 34 34 34 33 33 35 36 35 34 33 34 34 34 34 35 36 37 38 39 41 42 43 43 44 45 45 44 45 45 45 46 47 47 47 47 47 47 47 47 48 48
35 35 37 40 41 40 39 38 39 39 38 37 37 37 36 36 37 37 36 35 36 36 36 36 37 36 34 34 34 34 33 33 33 33 34 33 33 33 33 33 33 34 35 35 36 37 39 40 42 43 44 44 44 44 43 44 44 44 45 46 46 47 47 46 46 46 47 47 48
34 35 36 37 37 37 37 38 37 36 36 36 36 36 36 36 36 37 36 36 35 34 35 36 36 35 35 33 33 32 32 32 32 32 32 32 32 32 32 33 33 34 35 35 35 36 37 38 41 43 44 43 43 43 43 43 43 44 44 45 46 46 46 46 46 46 46 46 47
34 34 35 35 35 36 37 38 37 37 36 36 35 35 35 35 36 36 35 34 33 33 34 35 34 34 34 34 33 32 32 34 34 33 32 31 31 32 32 32 33 33 34 34 34 35 36 37 39 41 42 41 41 42 42 43 43 43 44 44 45 45 45 45 45 45 45 46 46
34 34 34 35 35 35 36 36 37 36 36 36 35 35 35 35 35 34 34 35 35 35 35 34 33 33 33 33 32 32 32 33 36 35 32 31 31 31 31 31 32 33 33 34 34 35 35 36 38 39 39 40 41 42 42 43 42 42 43 44 44 44 44 44 44 44 45 45 45
35 34 34 34 34 34 35 35 35 35 35 35 35 35 35 36 35 35 35 36 35 34 34 35 35 36 36 33 32 32 32 32 32 32 31 31 31 30 30 31 32 32 33 33 34 34 35 35 38 39 39 40 40 41 43 43 42 42 42 43 43 43 43 43 43 44 44 44 44
35 35 34 34 34 34 35 35 34 34 33 33 34 34 35 35 35 35 34 34 34 34 35 38 37 36 34 32 32 32 32 32 31 31 31 31 30 30 30 31 31 31 32 33 33 34 34 34 37 38 39 40 40 41 42 42 42 42 41 41 42 42 42 42 43 43 43 43 43
33 34 34 35 34 34 35 35 34 34 33 34 34 35 35 35 34 34 34 33 33 34 35 37 34 33 32 32 32 32 32 32 32 32 31 30 30 30 30 29 30 31 32 32 33 33 33 34 36 37 37 38 39 39 39 41 41 41 41 41 42 42 42 42 42 42 42 42 42
33 33 33 33 34 34 34 34 34 34 34 35 34 34 34 34 34 34 34 34 36 36 35 34 33 32 32 32 32 32 32 32 32 32 31 30 30 30 30 29 30 30 31 32 32 32 33 34 35 36 36 37 37 37 37 38 40 40 40 41 41 41 42 42 41 41 41 41 41
34 34 34 34 34 34 35 33 33 34 34 34 34 34 35 37 37 36 35 36 37 36 34 33 32 32 32 32 32 32 32 32 32 32 31 32 32 31 30 30 30 30 31 31 31 31 32 33 33 34 34 34 35 35 36 38 39 40 40 40 41 41 41 41 41 41 41 41 41
34 34 34 35 34 35 36 34 34 35 35 34 34 34 34 36 36 36 36 36 35 34 34 34 33 33 33 33 33 33 33 32 32 31 31 31 32 31 30 29 30 30 30 30 30 30 31 32 32 32 32 33 33 34 35 36 37 39 40 40 40 40 40 41 41 41 41 41 41
33 33 33 33 33 33 34 34 34 35 35 34 34 34 34 34 34 35 35 35 34 34 35 34 33 33 33 33 33 34 34 33 32 32 32 32 31 30 30 29 29 29 29 30 29 30 31 32 31 32 32 32 32 33 34 34 36 37 39 40 40 40 40 40 41 41 41 41 41
33 33 33 32 32 32 33 33 33 33 34 34 34 34 34 34 34 35 35 34 35 35 34 34 34 34 33 33 33 33 33 33 32 32 32 32 31 30 30 29 29 29 29 29 29 29 30 31 31 31 31 32 32 33 33 34 35 36 37 39 40 40 40 40 41 41 41 41 41
32 32 32 31 31 32 32 33 33 33 34 34 34 34 34 34 34 35 35 34 34 34 34 33 34 34 34 33 33 33 33 32 32 32 31 31 30 30 30 29 29 29 29 29 29 29 30 30 31 31 31 31 31 32 33 33 34 34 35 36 38 39 40 40 41 41 41 41 41
32 32 31 31 31 31 32 32 33 34 34 34 35 34 34 34 34 35 34 33 33 32 32 32 33 34 34 33 33 32 32 31 31 31 31 31 31 30 30 30 30 29 29 29 29 29 29 30 31 31 31 31 32 32 32 33 33 34 34 35 36 37 38 38 38 39 40 41 41
33 32 31 31 31 32 32 32 33 33 34 35 35 34 34 34 33 34 34 33 32 31 31 31 32 31 32 33 33 32 31 30 31 31 31 32 31 31 30 30 30 30 30 29 29 29 29 30 30 30 31 31 31 32 32 32 33 33 34 34 34 34 35 36 36 37 39 40 41
34 33 32 32 32 33 33 33 33 33 34 34 34 34 34 33 33 33 34 34 32 31 31 32 31 31 31 32 34 33 32 31 31 31 32 33 32 32 32 31 31 31 30 30 30 30 30 30 29 30 30 30 31 31 31 31 32 32 32 32 32 33 33 35 35 36 36 37 39
33 33 32 32 33 33 33 33 33 33 33 33 33 33 33 33 32 33 34 35 33 33 33 33 31 31 31 32 32 33 34 32 32 33 33 33 32 32 32 32 31 31 30 30 30 31 31 31 30 29 29 30 30 30 30 31 31 31 31 31 31 32 32 33 33 33 34 34 35
32 32 32 32 32 32 33 33 33 33 33 33 33 32 32 32 32 32 32 33 33 34 33 33 33 32 32 33 32 33 35 34 33 33 33 32 32 32 31 31 31 30 30 30 30 31 31 31 30 30 30 30 29 30 30 30 30 30 30 30 31 31 31 31 31 32 32 32 33
32 32 32 32 32 32 32 33 33 33 32 32 32 32 32 32 31 32 32 33 33 33 32 33 33 33 33 33 32 33 34 34 33 33 32 32 32 32 32 32 31 30 30 30 30 30 30 30 30 30 30 30 30 30 30 30 30 30 30 30 30 30 30 30 30 30 30 30 30
31 31 32 31 31 31 32 32 32 32 32 32 32 32 32 32 32 32 32 33 32 32 31 32 32 33 33 33 33 33 33 34 33 32 32 32 32 32 32 32 31 31 30 30 30 30 30 30 30 30 30 30 31 31 31 31 31 31 31 31 30 30 30 30 29 29 29 29 29
31 31 31 30 30 31 32 32 31 31 31 31 32 32 32 32 32 32 31 31 31 31 32 32 32 32 33 33 33 33 33 34 33 32 32 32 32 32 32 31 31 31 31 31 31 31 31 31 30 30 30 31 31 31 32 32 32 31 31 31 30 30 29 29 29 28 28 28 28
30 29 29 30 30 31 32 32 31 31 31 31 31 31 32 32 32 31 31 31 32 32 32 32 32 32 32 32 32 32 32 32 32 32 31 31 31 31 31 31 31 31 31 32 32 31 31 31 31 31 31 31 31 32 32 32 32 32 31 31 31 30 29 29 28 28 28 28 28
28 28 28 28 29 29 30 30 30 30 31 31 31 31 31 31 31 31 31 31 31 31 31 31 31 31 31 31 31 31 31 32 32 32 32 32 31 31 31 31 31 31 32 33 34 34 34 35 33 32 32 32 32 32 32 32 31 31 31 31 31 30 30 29 28 28 28 28 28
27 28 28 28 28 28 29 29 29 30 30 30 30 30 30 31 31 31 31 32 32 32 31 31 31 31 31 31 30 30 30 31 31 32 32 33 32 32 31 31 31 32 33 35 40 43 44 44 41 38 35 33 33 33 32 31 31 31 31 31 31 31 31 30 29 29 28 28 28
26 27 27 27 27 27 28 28 29 29 29 29 29 30 30 30 31 31 31 31 31 31 31 31 31 32 33 32 31 31 31 31 31 32 32 33 33 33 33 33 33 33 34 38 42 45 47 48 48 45 41 35 34 33 33 32 32 31 31 31 31 31 31 32 32 31 30 30 29
26 27 27 26 26 27 27 28 28 28 28 28 29 29 29 30 30 30 30 30 30 31 31 31 31 34 35 33 32 32 32 32 32 31 31 32 32 33 33 34 34 35 37 41 44 46 47 48 49 49 46 40 36 35 35 35 33 32 31 31 31 31 31 32 32 32 32 31 30
26 26 26 26 26 26 27 27 27 27 28 28 28 29 29 29 29 29 29 30 30 30 31 31 32 33 33 32 32 32 32 31 31 31 31 31 31 32 33 34 34 36 39 43 45 46 47 48 49 49 48 45 39 35 34 34 34 33 32 32 32 31 31 32 32 32 32 32 30
26 26 26 26 26 26 26 26 27 27 27 28 28 28 28 28 28 29 29 29 30 30 31 31 32 32 32 32 31 31 31 31 31 31 31 31 31 31 32 33 34 37 41 44 45 46 47 48 48 49 49 49 44 39 36 35 34 34 33 33 33 32 32 32 33 33 32 32 31
25 25 25 25 25 26 26 27 27 27 27 27 27 27 27 28 28 28 29 29 30 31 31 31 31 31 31 31 31 31 31 31 31 31 30 30 31 32 33 35 34 36 40 44 45 46 47 47 48 48 48 49 46 41 37 35 34 34 34 35 33 32 32 32 32 31 32 32 31
25 24 25 25 25 25 26 26 26 26 26 26 26 26 27 27 28 28 29 29 30 31 32 31 31 30 30 30 30 31 31 31 30 30 30 30 32 33 33 33 33 35 39 43 45 46 46 47 47 48 48 48 47 43 38 36 35 35 35 35 35 34 33 33 32 32 31 31 31
24 24 24 25 25 25 26 25 25 25 25 25 25 26 26 27 27 27 28 28 29 30 30 30 30 30 30 30 30 30 30 30 30 30 31 31 31 31 31 33 32 35 39 43 45 46 46 47 47 47 48 48 47 43 38 36 35 35 35 34 34 33 33 34 34 33 32 31 31
24 24 24 24 25 25 25 25 24 24 24 24 25 25 26 26 26 27 27 28 28 29 29 30 30 30 30 30 30 30 30 31 31 32 32 32 31 30 31 33 32 36 40 43 45 45 46 46 47 47 47 48 47 43 38 36 35 35 35 35 34 33 32 32 33 33 33 32 32
24 24 24 24 25 25 25 24 24 24 24 24 25 26 26 26 26 26 27 28 29 29 29 29 29 30 30 30 30 30 31 33 32 31 30 30 30 30 31 32 34 37 41 43 44 45 45 46 46 46 47 47 45 41 38 36 35 35 35 36 35 34 34 33 33 33 33 32 32
25 25 25 25 24 24 24 23 23 23 24 25 26 26 26 26 26 27 27 29 30 30 29 29 29 29 29 29 29 30 30 31 31 31 30 30 30 31 32 33 34 37 41 43 44 44 45 45 45 46 46 46 43 39 36 35 35 35 36 36 36 35 35 34 34 34 33 32 32
25 25 25 25 24 24 24 23 23 24 24 25 26 26 26 26 26 27 28 30 30 29 28 28 28 28 28 28 29 30 31 30 30 31 31 31 31 31 31 32 33 36 40 42 43 44 44 45 45 46 46 45 41 38 35 35 35 35 35 35 36 36 36 35 35 34 33 33 32
25 25 25 25 25 25 24 24 24 24 25 26 26 27 27 27 27 27 28 30 28 28 27 28 27 28 28 28 29 29 29 29 29 30 31 32 31 31 31 32 32 35 38 41 42 43 44 45 45 45 45 42 39 36 35 35 35 35 35 35 36 36 36 36 35 34 33 32 32
26 26 26 26 26 25 25 24 25 25 26 26 27 27 27 27 27 28 29 31 28 27 27 28 28 28 28 28 28 28 28 28 29 29 30 31 30 30 31 31 32 34 37 40 42 43 44 44 45 45 44 41 38 36 36 35 35 35 36 36 37 36 36 36 36 35 34 33 35
27 26 26 26 26 26 25 25 25 25 26 26 27 27 27 27 27 28 29 31 29 28 28 28 28 28 28 29 29 29 28 28 29 29 30 29 30 31 32 32 32 34 36 40 41 42 43 44 44 45 44 42 38 36 36 36 35 35 35 36 36 36 35 35 35 34 34 33 38
27 26 26 26 26 26 26 25 26 26 26 27 27 27 27 27 29 29 30 29 28 27 27 27 27 28 29 30 30 29 28 29 29 29 29 30 31 33 35 34 33 34 35 39 40 42 43 43 44 44 44 43 38 36 35 35 35 35 35 36 36 36 36 35 34 34 34 33 36
26 26 26 26 25 25 25 26 26 26 26 26 26 27 28 29 29 29 29 27 27 27 27 27 27 27 27 30 29 29 28 29 30 29 29 30 31 33 35 33 32 32 34 36 39 41 42 43 44 44 45 44 39 36 35 34 34 35 35 35 36 36 36 36 35 34 33 32 33
MSLP
1019.48 1019.48 1019.44 1019.40 1019.40 1019.40 1019.40 1019.36 1019.24 1019.20 1019.20 1019.20 1019.20 1019.12 1019.08 1019.08 1019.08 1018.92 1018.80 1018.92 1018.80 1018.72 1018.60 1018.48 1018.36 1018.24 1018.16 1018.08 1018.00 1017.96 1017.92 1017.80 1017.80 1017.72 1017.64 1017.56 1017.52 1017.44 1017.36 1017.28 1017.20 1017.08 1017.00 1016.84 1016.68 1016.52 1016.32 1016.08 1015.88 1015.68 1015.52 1015.40 1015.32 1015.20 1015.08 1014.92 1014.68 1014.48 1014.24 1014.00 1013.80 1013.64 1013.52 1013.36 1013.24 1013.08 1012.92 1012.76 1012.56
1019.40 1019.44 1019.40 1019.36 1019.36 1019.36 1019.36 1019.32 1019.24 1019.20 1019.16 1019.12 1019.08 1019.08 1019.04 1019.04 1019.00 1018.92 1018.84 1018.80 1018.68 1018.60 1018.52 1018.40 1018.28 1018.24 1018.16 1018.04 1017.96 1017.92 1017.92 1017.80 1017.76 1017.68 1017.64 1017.56 1017.52 1017.44 1017.36 1017.24 1017.20 1017.08 1017.00 1016.92 1016.76 1016.60 1016.44 1016.24 1016.00 1015.80 1015.64 1015.52 1015.36 1015.28 1015.20 1015.08 1014.92 1014.64 1014.40 1014.20 1014.04 1013.88 1013.72 1013.56 1013.44 1013.32 1013.16 1012.96 1012.80
1019.36 1019.36 1019.36 1019.40 1019.44 1019.44 1019.40 1019.32 1019.24 1019.20 1019.16 1019.08 1019.04 1019.00 1018.96 1018.96 1018.92 1018.88 1018.80 1018.72 1018.64 1018.60 1018.52 1018.40 1018.28 1018.24 1018.12 1018.04 1017.92 1017.88 1017.84 1017.80 1017.76 1017.68 1017.64 1017.52 1017.48 1017.40 1017.32 1017.20 1017.16 1017.08 1017.00 1016.92 1016.80 1016.72 1016.56 1016.36 1016.16 1016.00 1015.84 1015.64 1015.52 1015.44 1015.32 1015.20 1015.08 1014.88 1014.64 1014.40 1014.28 1014.12 1014.00 1013.84 1013.72 1013.56 1013.40 1013.20 1013.04
1019.28 1019.36 1019.36 1019.36 1019.40 1019.36 1019.36 1019.24 1019.20 1019.16 1019.12 1019.04 1019.00 1018.96 1018.92 1018.92 1018.88 1018.80 1018.76 1018.68 1018.64 1018.56 1018.52 1018.36 1018.24 1018.20 1018.12 1018.04 1017.92 1017.88 1017.80 1017.72 1017.68 1017.64 1017.60 1017.52 1017.44 1017.36 1017.32 1017.24 1017.16 1017.08 1017.00 1016.92 1016.84 1016.76 1016.64 1016.48 1016.32 1016.12 1015.96 1015.84 1015.68 1015.60 1015.52 1015.40 1015.24 1015.08 1014.88 1014.68 1014.52 1014.40 1014.24 1014.12 1013.96 1013.80 1013.64 1013.52 1013.36
1019.12 1019.20 1019.28 1019.32 1019.32 1019.28 1019.24 1019.20 1019.20 1019.16 1019.08 1019.04 1019.04 1019.00 1018.92 1018.88 1018.84 1018.80 1018.80 1018.68 1018.60 1018.48 1018.36 1018.32 1018.24 1018.16 1018.08 1018.00 1017.96 1017.88 1017.76 1017.68 1017.56 1017.52 1017.52 1017.48 1017.40 1017.36 1017.32 1017.20 1017.12 1017.08 1017.00 1016.92 1016.88 1016.80 1016.64 1016.56 1016.40 1016.24 1016.12 1015.96 1015.80 1015.76 1015.68 1015.56 1015.40 1015.24 1015.08 1014.92 1014.76 1014.60 1014.52 1014.36 1014.20 1014.08 1013.92 1013.76 1013.56
1018.92 1019.08 1019.16 1019.20 1019.20 1019.20 1019.20 1019.12 1019.12 1019.12 1019.08 1019.08 1019.08 1019.08 1019.00 1018.88 1018.84 1018.80 1018.76 1018.64 1018.52 1018.40 1018.32 1018.24 1018.16 1018.08 1018.04 1018.00 1017.92 1017.84 1017.76 1017.68 1017.60 1017.56 1017.52 1017.48 1017.40 1017.36 1017.28 1017.20 1017.12 1017.08 1016.96 1016.88 1016.84 1016.76 1016.64 1016.56 1016.44 1016.32 1016.20 1016.08 1015.92 1015.80 1015.72 1015.64 1015.52 1015.36 1015.20 1015.08 1014.96 1014.80 1014.68 1014.56 1014.40 1014.24 1014.08 1013.92 1013.76
1018.80 1018.92 1019.00 1019.08 1019.08 1019.12 1019.12 1019.08 1019.08 1019.08 1019.08 1019.08 1019.12 1019.08 1019.00 1018.92 1018.88 1018.80 1018.72 1018.60 1018.48 1018.36 1018.28 1018.16 1018.08 1018.08 1018.04 1018.00 1017.92 1017.84 1017.76 1017.64 1017.60 1017.56 1017.52 1017.44 1017.40 1017.36 1017.28 1017.20 1017.12 1017.04 1016.92 1016.88 1016.84 1016.76 1016.68 1016.64 1016.52 1016.36 1016.20 1016.04 1015.96 1015.84 1015.72 1015.64 1015.52 1015.44 1015.36 1015.20 1015.12 1015.00 1014.88 1014.80 1014.60 1014.44 1014.24 1014.04 1013.84
1018.64 1018.76 1018.88 1018.92 1018.96 1019.04 1019.08 1019.04 1019.08 1019.08 1019.08 1019.08 1019.08 1019.08 1018.96 1018.92 1018.84 1018.76 1018.64 1018.60 1018.52 1018.36 1018.24 1018.08 1018.08 1018.08 1018.08 1018.00 1017.92 1017.84 1017.76 1017.68 1017.60 1017.52 1017.48 1017.48 1017.40 1017.36 1017.24 1017.20 1017.12 1017.04 1016.92 1016.84 1016.80 1016.76 1016.72 1016.64 1016.52 1016.40 1016.28 1016.08 1016.00 1015.88 1015.76 1015.64 1015.60 1015.52 1015.44 1015.28 1015.20 1015.12 1015.04 1014.92 1014.80 1014.60 1014.44 1014.24 1014.04
1018.60 1018.64 1018.72 1018.80 1018.88 1018.92 1018.96 1019.00 1019.08 1019.08 1019.08 1019.08 1019.08 1018.96 1018.88 1018.84 1018.80 1018.76 1018.64 1018.52 1018.36 1018.24 1018.16 1018.08 1018.08 1018.04 1018.00 1017.96 1017.92 1017.80 1017.72 1017.64 1017.56 1017.52 1017.48 1017.44 1017.40 1017.32 1017.20 1017.16 1017.08 1017.00 1016.88 1016.80 1016.80 1016.76 1016.72 1016.64 1016.52 1016.40 1016.32 1016.20 1016.08 1015.92 1015.80 1015.68 1015.64 1015.56 1015.48 1015.36 1015.24 1015.20 1015.08 1015.00 1014.92 1014.76 1014.60 1014.44 1014.24
1018.60 1018.56 1018.64 1018.72 1018.80 1018.84 1018.92 1018.96 1019.00 1019.04 1019.08 1019.08 1018.96 1018.92 1018.84 1018.80 1018.72 1018.68 1018.60 1018.48 1018.36 1018.24 1018.16 1018.08 1018.04 1018.00 1017.96 1017.92 1017.84 1017.76 1017.64 1017.64 1017.56 1017.52 1017.44 1017.36 1017.32 1017.28 1017.24 1017.20 1017.12 1017.00 1016.88 1016.80 1016.76 1016.72 1016.64 1016.60 1016.52 1016.48 1016.36 1016.24 1016.12 1016.00 1015.84 1015.76 1015.64 1015.56 1015.52 1015.40 1015.36 1015.20 1015.12 1015.04 1014.92 1014.80 1014.68 1014.56 1014.48
1018.64 1018.64 1018.64 1018.64 1018.72 1018.80 1018.84 1018.92 1018.92 1018.92 1019.00 1019.04 1018.92 1018.88 1018.80 1018.76 1018.68 1018.60 1018.52 1018.44 1018.40 1018.28 1018.12 1018.04 1017.96 1017.96 1017.92 1017.80 1017.76 1017.64 1017.60 1017.56 1017.52 1017.52 1017.44 1017.36 1017.28 1017.24 1017.20 1017.20 1017.12 1017.08 1016.92 1016.80 1016.76 1016.68 1016.64 1016.60 1016.52 1016.48 1016.36 1016.24 1016.12 1016.04 1015.92 1015.80 1015.68 1015.60 1015.52 1015.40 1015.36 1015.20 1015.12 1015.04 1014.92 1014.84 1014.80 1014.68 1014.56
1018.76 1018.64 1018.64 1018.68 1018.72 1018.76 1018.80 1018.88 1018.92 1018.92 1018.92 1018.96 1018.92 1018.84 1018.80 1018.72 1018.64 1018.56 1018.52 1018.52 1018.40 1018.24 1018.04 1017.96 1017.92 1017.92 1017.84 1017.76 1017.72 1017.64 1017.56 1017.52 1017.52 1017.48 1017.44 1017.36 1017.32 1017.24 1017.20 1017.20 1017.12 1017.08 1016.96 1016.88 1016.80 1016.72 1016.64 1016.60 1016.56 1016.48 1016.36 1016.24 1016.16 1016.04 1015.92 1015.84 1015.72 1015.60 1015.48 1015.36 1015.28 1015.20 1015.08 1014.96 1014.92 1014.84 1014.80 1014.72 1014.64
1018.84 1018.76 1018.72 1018.76 1018.80 1018.80 1018.88 1018.92 1018.96 1018.96 1018.96 1018.92 1018.92 1018.84 1018.76 1018.64 1018.56 1018.52 1018.52 1018.52 1018.36 1018.20 1018.04 1017.92 1017.88 1017.84 1017.80 1017.72 1017.64 1017.64 1017.56 1017.52 1017.48 1017.44 1017.40 1017.36 1017.32 1017.24 1017.20 1017.16 1017.08 1017.04 1016.96 1016.88 1016.80 1016.76 1016.64 1016.60 1016.52 1016.48 1016.36 1016.24 1016.12 1016.04 1015.96 1015.88 1015.80 1015.68 1015.52 1015.40 1015.32 1015.20 1015.08 1014.96 1014.88 1014.80 1014.72 1014.68 1014.64
1018.88 1018.84 1018.84 1018.88 1018.88 1018.92 1018.96 1019.04 1019.04 1019.04 1019.04 1019.00 1018.92 1018.80 1018.76 1018.68 1018.56 1018.52 1018.52 1018.48 1018.32 1018.16 1018.04 1017.92 1017.84 1017.80 1017.72 1017.68 1017.64 1017.60 1017.56 1017.52 1017.48 1017.44 1017.40 1017.36 1017.28 1017.24 1017.20 1017.12 1017.08 1017.00 1016.92 1016.88 1016.84 1016.76 1016.64 1016.56 1016.48 1016.40 1016.36 1016.24 1016.12 1016.04 1015.92 1015.88 1015.80 1015.72 1015.60 1015.52 1015.40 1015.28 1015.16 1015.04 1014.92 1014.80 1014.68 1014.64 1014.52
1018.92 1018.92 1018.96 1018.96 1019.00 1019.08 1019.08 1019.16 1019.20 1019.20 1019.12 1019.08 1018.96 1018.88 1018.80 1018.68 1018.60 1018.52 1018.48 1018.40 1018.32 1018.20 1018.08 1018.00 1017.88 1017.76 1017.64 1017.64 1017.64 1017.60 1017.56 1017.52 1017.48 1017.44 1017.40 1017.32 1017.28 1017.20 1017.16 1017.12 1017.04 1016.92 1016.88 1016.84 1016.80 1016.72 1016.64 1016.52 1016.44 1016.36 1016.28 1016.24 1016.08 1015.96 1015.88 1015.80 1015.76 1015.68 1015.60 1015.52 1015.52 1015.40 1015.24 1015.08 1014.96 1014.84 1014.76 1014.64 1014.56
1019.04 1019.08 1019.08 1019.08 1019.12 1019.20 1019.24 1019.28 1019.28 1019.28 1019.20 1019.12 1019.04 1018.92 1018.84 1018.72 1018.64 1018.52 1018.48 1018.40 1018.32 1018.24 1018.12 1018.04 1017.92 1017.84 1017.72 1017.64 1017.60 1017.60 1017.56 1017.52 1017.44 1017.40 1017.36 1017.32 1017.24 1017.20 1017.12 1017.08 1017.00 1016.92 1016.84 1016.80 1016.76 1016.64 1016.60 1016.52 1016.44 1016.36 1016.24 1016.16 1016.04 1015.92 1015.80 1015.72 1015.68 1015.64 1015.56 1015.52 1015.48 1015.40 1015.32 1015.20 1015.08 1014.92 1014.80 1014.72 1014.64
1019.12 1019.16 1019.20 1019.20 1019.24 1019.28 1019.36 1019.36 1019.36 1019.36 1019.28 1019.20 1019.12 1019.04 1018.92 1018.84 1018.68 1018.60 1018.48 1018.36 1018.32 1018.24 1018.16 1018.04 1017.92 1017.88 1017.80 1017.64 1017.56 1017.56 1017.52 1017.48 1017.40 1017.36 1017.36 1017.24 1017.20 1017.12 1017.08 1017.04 1016.96 1016.88 1016.80 1016.80 1016.72 1016.64 1016.52 1016.48 1016.36 1016.32 1016.24 1016.12 1016.00 1015.88 1015.80 1015.68 1015.64 1015.56 1015.52 1015.44 1015.36 1015.36 1015.24 1015.16 1015.08 1015.00 1014.92 1014.80 1014.76
1019.24 1019.24 1019.28 1019.32 1019.36 1019.44 1019.44 1019.44 1019.40 1019.36 1019.32 1019.28 1019.20 1019.08 1019.00 1018.92 1018.80 1018.68 1018.52 1018.40 1018.36 1018.32 1018.24 1018.08 1017.96 1017.88 1017.80 1017.68 1017.60 1017.52 1017.52 1017.44 1017.36 1017.32 1017.24 1017.20 1017.12 1017.08 1017.04 1016.96 1016.88 1016.80 1016.80 1016.76 1016.68 1016.60 1016.52 1016.40 1016.32 1016.28 1016.24 1016.08 1015.92 1015.84 1015.76 1015.64 1015.60 1015.52 1015.40 1015.36 1015.32 1015.24 1015.20 1015.12 1015.08 1015.04 1014.96 1014.92 1014.80
1019.36 1019.36 1019.40 1019.48 1019.52 1019.52 1019.52 1019.48 1019.44 1019.40 1019.36 1019.32 1019.20 1019.12 1019.04 1018.96 1018.92 1018.80 1018.64 1018.48 1018.36 1018.36 1018.28 1018.16 1018.04 1017.92 1017.80 1017.72 1017.64 1017.52 1017.40 1017.36 1017.36 1017.24 1017.16 1017.12 1017.08 1017.00 1016.92 1016.88 1016.80 1016.80 1016.76 1016.68 1016.60 1016.52 1016.44 1016.36 1016.28 1016.24 1016.16 1016.04 1015.92 1015.80 1015.72 1015.64 1015.52 1015.44 1015.36 1015.28 1015.20 1015.16 1015.08 1015.08 1015.00 1014.96 1014.92 1014.88 1014.80
1019.48 1019.52 1019.52 1019.56 1019.56 1019.56 1019.52 1019.52 1019.48 1019.44 1019.36 1019.28 1019.20 1019.16 1019.08 1018.96 1018.92 1018.80 1018.72 1018.60 1018.44 1018.36 1018.32 1018.24 1018.12 1017.96 1017.84 1017.76 1017.64 1017.52 1017.40 1017.36 1017.32 1017.20 1017.12 1017.08 1017.04 1016.96 1016.88 1016.80 1016.76 1016.72 1016.68 1016.64 1016.56 1016.48 1016.40 1016.32 1016.24 1016.20 1016.12 1016.04 1015.92 1015.80 1015.72 1015.60 1015.52 1015.36 1015.28 1015.20 1015.12 1015.08 1015.00 1014.92 1014.92 1014.88 1014.84 1014.80 1014.80
1019.56 1019.60 1019.60 1019.60 1019.60 1019.56 1019.52 1019.52 1019.48 1019.44 1019.36 1019.28 1019.20 1019.16 1019.08 1018.96 1018.92 1018.80 1018.72 1018.64 1018.52 1018.40 1018.36 1018.24 1018.16 1018.04 1017.92 1017.80 1017.68 1017.56 1017.40 1017.32 1017.28 1017.20 1017.12 1017.08 1017.00 1016.92 1016.80 1016.80 1016.76 1016.72 1016.64 1016.60 1016.52 1016.44 1016.36 1016.28 1016.24 1016.12 1016.08 1016.00 1015.88 1015.80 1015.68 1015.56 1015.48 1015.36 1015.20 1015.12 1015.04 1014.96 1014.92 1014.84 1014.80 1014.80 1014.76 1014.72 1014.68
1019.64 1019.64 1019.64 1019.60 1019.60 1019.56 1019.52 1019.44 1019.40 1019.36 1019.36 1019.28 1019.20 1019.16 1019.08 1018.96 1018.88 1018.80 1018.72 1018.64 1018.52 1018.40 1018.32 1018.24 1018.16 1018.08 1017.92 1017.84 1017.72 1017.60 1017.44 1017.28 1017.24 1017.20 1017.12 1017.04 1016.92 1016.84 1016.76 1016.76 1016.72 1016.64 1016.60 1016.52 1016.44 1016.36 1016.28 1016.20 1016.16 1016.08 1016.00 1015.92 1015.80 1015.72 1015.64 1015.52 1015.44 1015.36 1015.20 1015.08 1015.00 1014.88 1014.80 1014.76 1014.68 1014.68 1014.68 1014.64 1014.64
1019.64 1019.64 1019.64 1019.64 1019.64 1019.52 1019.48 1019.44 1019.40 1019.36 1019.32 1019.24 1019.20 1019.12 1019.08 1018.96 1018.88 1018.80 1018.64 1018.60 1018.48 1018.40 1018.32 1018.24 1018.16 1018.04 1017.92 1017.80 1017.72 1017.64 1017.48 1017.36 1017.20 1017.12 1017.08 1017.04 1016.92 1016.80 1016.72 1016.72 1016.68 1016.64 1016.52 1016.40 1016.36 1016.28 1016.24 1016.12 1016.04 1015.96 1015.92 1015.84 1015.76 1015.64 1015.52 1015.48 1015.40 1015.32 1015.20 1015.08 1014.96 1014.88 1014.80 1014.68 1014.64 1014.60 1014.60 1014.52 1014.52
1019.68 1019.64 1019.64 1019.64 1019.64 1019.56 1019.52 1019.48 1019.40 1019.36 1019.32 1019.28 1019.20 1019.16 1019.08 1019.00 1018.88 1018.80 1018.64 1018.52 1018.48 1018.36 1018.32 1018.20 1018.08 1017.96 1017.88 1017.76 1017.68 1017.64 1017.52 1017.40 1017.28 1017.12 1016.96 1016.92 1016.84 1016.80 1016.68 1016.64 1016.64 1016.52 1016.44 1016.32 1016.24 1016.16 1016.08 1015.96 1015.88 1015.80 1015.72 1015.68 1015.64 1015.52 1015.44 1015.36 1015.32 1015.28 1015.20 1015.08 1015.00 1014.88 1014.76 1014.64 1014.60 1014.56 1014.52 1014.44 1014.40
1019.72 1019.68 1019.64 1019.64 1019.64 1019.60 1019.56 1019.52 1019.52 1019.48 1019.40 1019.36 1019.28 1019.20 1019.12 1019.00 1018.92 1018.80 1018.72 1018.60 1018.48 1018.36 1018.28 1018.16 1018.08 1017.92 1017.80 1017.72 1017.64 1017.56 1017.52 1017.40 1017.36 1017.20 1017.00 1016.88 1016.80 1016.68 1016.64 1016.60 1016.48 1016.36 1016.28 1016.16 1015.96 1015.80 1015.72 1015.64 1015.60 1015.52 1015.48 1015.48 1015.44 1015.36 1015.32 1015.24 1015.20 1015.16 1015.12 1015.08 1014.96 1014.88 1014.76 1014.64 1014.52 1014.52 1014.44 1014.36 1014.32
1019.72 1019.72 1019.68 1019.64 1019.64 1019.64 1019.60 1019.52 1019.52 1019.52 1019.48 1019.36 1019.28 1019.20 1019.12 1019.04 1018.92 1018.84 1018.76 1018.64 1018.52 1018.40 1018.28 1018.16 1018.04 1017.92 1017.80 1017.68 1017.60 1017.52 1017.40 1017.36 1017.24 1017.20 1017.08 1016.92 1016.80 1016.68 1016.56 1016.52 1016.36 1016.28 1016.16 1016.00 1015.80 1015.64 1015.48 1015.36 1015.28 1015.24 1015.24 1015.24 1015.20 1015.20 1015.12 1015.08 1015.04 1015.04 1015.04 1015.00 1014.92 1014.88 1014.80 1014.64 1014.48 1014.36 1014.28 1014.24 1014.24
1019.72 1019.72 1019.68 1019.64 1019.64 1019.60 1019.56 1019.52 1019.52 1019.44 1019.40 1019.36 1019.32 1019.24 1019.16 1019.04 1018.92 1018.88 1018.80 1018.68 1018.56 1018.44 1018.32 1018.16 1018.08 1017.92 1017.80 1017.72 1017.64 1017.52 1017.40 1017.28 1017.20 1017.08 1017.04 1016.92 1016.80 1016.68 1016.56 1016.36 1016.28 1016.16 1016.04 1015.84 1015.64 1015.48 1015.32 1015.20 1015.08 1015.00 1015.00 1015.04 1015.04 1015.00 1014.96 1014.92 1014.88 1014.88 1014.92 1014.88 1014.84 1014.80 1014.80 1014.64 1014.48 1014.32 1014.24 1014.16 1014.12
1019.76 1019.68 1019.64 1019.64 1019.64 1019.56 1019.52 1019.48 1019.44 1019.36 1019.36 1019.32 1019.24 1019.20 1019.08 1019.00 1018.96 1018.92 1018.80 1018.68 1018.60 1018.44 1018.32 1018.20 1018.08 1017.92 1017.80 1017.76 1017.64 1017.52 1017.40 1017.24 1017.12 1017.04 1016.96 1016.88 1016.80 1016.64 1016.52 1016.36 1016.24 1016.08 1015.84 1015.68 1015.52 1015.36 1015.20 1015.08 1014.96 1014.88 1014.80 1014.80 1014.80 1014.84 1014.80 1014.80 1014.76 1014.72 1014.76 1014.72 1014.72 1014.68 1014.64 1014.56 1014.44 1014.32 1014.24 1014.12 1014.08
1019.72 1019.68 1019.64 1019.64 1019.60 1019.52 1019.48 1019.40 1019.40 1019.36 1019.28 1019.20 1019.16 1019.08 1019.08 1018.96 1018.92 1018.84 1018.76 1018.64 1018.52 1018.48 1018.36 1018.24 1018.08 1017.96 1017.88 1017.80 1017.64 1017.52 1017.36 1017.20 1017.08 1017.00 1016.92 1016.80 1016.68 1016.56 1016.44 1016.24 1016.08 1015.92 1015.72 1015.52 1015.36 1015.20 1015.08 1014.96 1014.88 1014.76 1014.64 1014.60 1014.60 1014.60 1014.64 1014.64 1014.64 1014.60 1014.60 1014.56 1014.56 1014.52 1014.52 1014.40 1014.32 1014.24 1014.20 1014.08 1014.04
1019.68 1019.68 1019.64 1019.60 1019.52 1019.48 1019.40 1019.36 1019.32 1019.24 1019.20 1019.12 1019.12 1019.08 1019.00 1018.92 1018.88 1018.80 1018.76 1018.64 1018.56 1018.44 1018.32 1018.20 1018.08 1018.00 1017.92 1017.80 1017.68 1017.52 1017.36 1017.20 1017.08 1017.04 1016.92 1016.84 1016.68 1016.52 1016.36 1016.16 1016.04 1015.84 1015.64 1015.44 1015.28 1015.12 1014.96 1014.84 1014.76 1014.64 1014.52 1014.44 1014.40 1014.44 1014.44 1014.44 1014.44 1014.44 1014.44 1014.36 1014.36 1014.36 1014.32 1014.24 1014.24 1014.16 1014.08 1014.00 1013.96
1019.72 1019.68 1019.64 1019.56 1019.52 1019.44 1019.36 1019.24 1019.20 1019.20 1019.16 1019.08 1019.08 1019.04 1018.96 1018.92 1018.88 1018.80 1018.76 1018.64 1018.52 1018.36 1018.24 1018.12 1018.08 1018.00 1017.88 1017.72 1017.64 1017.52 1017.36 1017.20 1017.08 1017.00 1016.92 1016.80 1016.64 1016.48 1016.28 1016.08 1015.96 1015.80 1015.60 1015.36 1015.20 1015.00 1014.84 1014.72 1014.60 1014.52 1014.40 1014.32 1014.24 1014.24 1014.24 1014.24 1014.24 1014.24 1014.24 1014.20 1014.16 1014.12 1014.12 1014.08 1014.08 1014.04 1013.96 1013.92 1013.92
1019.72 1019.68 1019.64 1019.56 1019.48 1019.36 1019.20 1019.16 1019.12 1019.08 1019.08 1019.08 1019.04 1019.00 1018.96 1018.92 1018.84 1018.76 1018.68 1018.60 1018.48 1018.36 1018.24 1018.12 1018.04 1017.92 1017.80 1017.64 1017.52 1017.40 1017.32 1017.20 1017.08 1016.96 1016.88 1016.76 1016.64 1016.44 1016.24 1016.04 1015.92 1015.76 1015.52 1015.32 1015.08 1014.92 1014.76 1014.64 1014.48 1014.36 1014.24 1014.16 1014.08 1014.08 1014.08 1014.08 1014.08 1014.08 1014.04 1014.00 1013.96 1013.96 1013.92 1013.92 1013.88 1013.84 1013.80 1013.80 1013.80
1019.68 1019.64 1019.64 1019.56 1019.44 1019.28 1019.16 1019.12 1019.08 1019.04 1019.04 1019.00 1018.96 1018.96 1018.92 1018.84 1018.76 1018.64 1018.60 1018.52 1018.44 1018.36 1018.24 1018.08 1018.00 1017.92 1017.76 1017.64 1017.52 1017.36 1017.20 1017.16 1017.00 1016.88 1016.72 1016.64 1016.52 1016.40 1016.20 1015.96 1015.80 1015.64 1015.40 1015.20 1015.04 1014.84 1014.64 1014.52 1014.36 1014.24 1014.16 1014.08 1013.96 1013.92 1013.96 1013.92 1013.92 1013.88 1013.84 1013.80 1013.80 1013.72 1013.72 1013.76 1013.72 1013.64 1013.60 1013.56 1013.60
1019.64 1019.64 1019.60 1019.52 1019.36 1019.28 1019.16 1019.08 1019.08 1019.04 1019.00 1018.96 1018.92 1018.92 1018.84 1018.80 1018.72 1018.64 1018.52 1018.40 1018.32 1018.24 1018.16 1018.08 1017.92 1017.80 1017.64 1017.56 1017.48 1017.36 1017.20 1017.00 1016.88 1016.76 1016.64 1016.56 1016.44 1016.28 1016.08 1015.88 1015.64 1015.44 1015.24 1015.08 1014.92 1014.76 1014.60 1014.48 1014.36 1014.24 1014.08 1013.92 1013.88 1013.84 1013.80 1013.80 1013.80 1013.72 1013.68 1013.64 1013.56 1013.52 1013.52 1013.52 1013.48 1013.44 1013.40 1013.36 1013.40
1019.64 1019.64 1019.56 1019.48 1019.36 1019.24 1019.16 1019.08 1019.08 1019.04 1019.00 1018.96 1018.88 1018.80 1018.72 1018.68 1018.64 1018.56 1018.44 1018.28 1018.24 1018.12 1018.04 1017.92 1017.80 1017.68 1017.60 1017.52 1017.36 1017.24 1017.12 1016.92 1016.80 1016.68 1016.56 1016.48 1016.36 1016.24 1016.00 1015.80 1015.52 1015.32 1015.12 1015.00 1014.80 1014.68 1014.52 1014.40 1014.24 1014.12 1014.00 1013.88 1013.80 1013.80 1013.72 1013.68 1013.64 1013.60 1013.52 1013.44 1013.36 1013.32 1013.24 1013.24 1013.20 1013.20 1013.20 1013.20 1013.24
1019.52 1019.52 1019.52 1019.40 1019.32 1019.20 1019.12 1019.08 1019.08 1019.04 1018.96 1018.92 1018.80 1018.72 1018.64 1018.56 1018.52 1018.40 1018.36 1018.20 1018.12 1018.08 1017.92 1017.80 1017.68 1017.64 1017.52 1017.40 1017.24 1017.12 1017.04 1016.92 1016.76 1016.64 1016.48 1016.36 1016.28 1016.16 1015.96 1015.72 1015.48 1015.20 1015.00 1014.88 1014.76 1014.60 1014.44 1014.28 1014.16 1014.04 1013.92 1013.80 1013.76 1013.68 1013.64 1013.56 1013.52 1013.44 1013.36 1013.32 1013.20 1013.12 1013.08 1013.08 1013.04 1013.04 1013.00 1013.04 1013.08
1019.44 1019.44 1019.40 1019.36 1019.24 1019.16 1019.08 1019.08 1019.04 1018.96 1018.88 1018.80 1018.68 1018.60 1018.52 1018.48 1018.36 1018.24 1018.20 1018.08 1018.08 1018.00 1017.88 1017.76 1017.64 1017.52 1017.44 1017.32 1017.12 1017.00 1016.92 1016.80 1016.72 1016.60 1016.40 1016.24 1016.20 1016.08 1015.92 1015.68 1015.40 1015.16 1014.92 1014.76 1014.60 1014.48 1014.36 1014.16 1014.04 1013.92 1013.84 1013.76 1013.68 1013.64 1013.56 1013.48 1013.36 1013.32 1013.20 1013.16 1013.04 1012.92 1012.84 1012.84 1012.80 1012.80 1012.80 1012.80 1012.88
1019.24 1019.28 1019.28 1019.24 1019.16 1019.08 1019.00 1018.96 1018.92 1018.88 1018.80 1018.64 1018.52 1018.44 1018.36 1018.28 1018.20 1018.12 1018.08 1017.96 1017.96 1017.92 1017.80 1017.68 1017.56 1017.40 1017.28 1017.20 1017.08 1016.92 1016.80 1016.68 1016.64 1016.52 1016.40 1016.24 1016.12 1016.04 1015.88 1015.64 1015.36 1015.08 1014.84 1014.64 1014.52 1014.36 1014.24 1014.08 1013.92 1013.80 1013.72 1013.64 1013.60 1013.52 1013.44 1013.36 1013.28 1013.20 1013.08 1012.96 1012.84 1012.72 1012.64 1012.64 1012.60 1012.60 1012.64 1012.64 1012.60
1019.08 1019.08 1019.08 1019.08 1019.04 1018.96 1018.92 1018.88 1018.80 1018.72 1018.64 1018.52 1018.40 1018.28 1018.24 1018.16 1018.04 1017.92 1017.88 1017.80 1017.80 1017.80 1017.72 1017.60 1017.44 1017.24 1017.12 1017.04 1016.96 1016.80 1016.64 1016.52 1016.48 1016.36 1016.28 1016.16 1016.04 1015.92 1015.76 1015.56 1015.28 1014.96 1014.76 1014.56 1014.40 1014.24 1014.08 1013.92 1013.80 1013.64 1013.60 1013.52 1013.44 1013.36 1013.32 1013.20 1013.12 1013.04 1012.92 1012.84 1012.68 1012.56 1012.48 1012.44 1012.44 1012.40 1012.40 1012.36 1012.32
1018.92 1018.92 1018.92 1018.92 1018.88 1018.84 1018.80 1018.76 1018.64 1018.56 1018.48 1018.36 1018.28 1018.20 1018.08 1018.00 1017.88 1017.76 1017.64 1017.64 1017.64 1017.64 1017.52 1017.48 1017.28 1017.16 1017.04 1016.92 1016.84 1016.72 1016.56 1016.36 1016.24 1016.20 1016.08 1016.00 1015.84 1015.72 1015.56 1015.40 1015.20 1014.92 1014.64 1014.48 1014.28 1014.12 1014.00 1013.84 1013.64 1013.52 1013.40 1013.36 1013.20 1013.20 1013.16 1013.08 1013.00 1012.92 1012.80 1012.72 1012.60 1012.48 1012.36 1012.24 1012.24 1012.24 1012.24 1012.20 1012.08
1018.76 1018.76 1018.76 1018.72 1018.68 1018.64 1018.64 1018.56 1018.48 1018.36 1018.24 1018.20 1018.12 1018.04 1017.92 1017.80 1017.68 1017.64 1017.56 1017.56 1017.52 1017.44 1017.36 1017.32 1017.16 1017.08 1016.96 1016.88 1016.76 1016.64 1016.48 1016.24 1016.08 1015.92 1015.88 1015.80 1015.64 1015.52 1015.36 1015.24 1015.08 1014.84 1014.60 1014.36 1014.20 1014.04 1013.84 1013.68 1013.52 1013.32 1013.20 1013.12 1013.08 1013.00 1012.96 1012.96 1012.88 1012.76 1012.64 1012.52 1012.48 1012.36 1012.24 1012.12 1012.08 1012.04 1012.00 1011.96 1011.92
Wind_Speed
2 2 2 3 2 2 2 2 2 2 2 2 2 2 2 2 2 3 2 2 2 3 3 3 3 3 3 4 4 4 4 4 3 3 3 2 2 3 3 4 4 5 6 7 7 6 6 6 5 4 4 4 5 6 6 7 8 8 8 8 7 7 8 9 9 11 11 11 9
2 2 2 2 2 2 2 2 2 2 2 2 2 2 2 2 2 3 3 3 3 3 3 3 3 3 3 4 4 4 4 4 4 3 3 2 3 3 3 3 4 5 5 6 6 6 5 6 5 5 4 4 5 6 7 7 8 8 9 9 7 7 7 7 8 10 10 10 9
2 2 2 2 2 2 2 2 2 2 3 2 2 2 2 2 2 3 3 3 2 2 2 3 3 3 3 4 4 3 3 3 3 3 3 2 3 3 3 3 4 4 5 5 6 6 5 6 5 4 4 4 5 6 7 7 8 8 8 9 7 6 6 6 7 8 8 8 9
1 1 2 2 3 3 3 3 3 3 3 3 2 2 2 2 2 2 2 2 2 2 3 3 3 3 3 3 4 4 3 3 3 3 3 3 3 3 3 3 3 4 5 5 5 6 6 6 4 3 3 4 4 5 6 6 8 7 7 7 6 6 6 6 6 6 6 6 8
1 2 2 2 3 3 3 3 3 3 3 2 2 2 2 2 2 2 2 2 3 3 3 3 3 3 3 3 3 4 4 4 3 3 3 3 3 3 3 3 3 3 4 4 5 5 6 6 4 3 3 3 3 4 5 6 7 6 6 5 5 5 6 6 6 6 5 6 6
1 2 2 2 3 3 3 3 3 3 3 2 2 3 3 2 2 2 3 3 3 3 3 3 3 3 3 3 3 3 4 3 3 3 3 4 3 3 3 3 3 3 3 4 4 5 5 5 3 3 3 3 3 3 5 6 6 6 5 5 5 5 6 6 6 6 6 7 8
2 2 2 2 2 3 3 3 2 2 2 1 2 3 4 4 3 3 4 4 3 3 3 3 3 3 3 3 3 3 3 3 3 3 3 3 4 4 3 3 3 3 3 3 4 4 4 4 3 3 3 3 3 3 4 5 5 5 5 5 5 5 5 6 6 6 7 9 10
2 2 2 2 2 2 3 3 2 2 2 2 3 4 5 5 4 4 4 4 4 3 3 2 2 3 3 3 3 4 4 3 3 3 3 3 4 4 4 4 3 3 3 3 3 3 3 3 3 3 3 3 3 3 4 5 5 5 5 5 4 4 4 5 6 6 8 10 11
1 1 2 2 2 2 2 2 2 2 2 3 4 5 5 5 5 5 5 4 4 3 3 2 2 3 3 3 4 4 3 3 3 4 3 3 4 4 4 4 4 4 3 2 2 2 3 2 2 3 3 3 3 4 4 5 6 6 6 5 5 5 5 5 6 7 8 9 10
0 0 1 1 1 1 1 1 1 2 2 4 5 5 5 5 5 5 4 4 3 3 3 3 2 2 3 4 4 4 3 3 3 3 4 4 4 4 5 4 4 4 4 3 2 2 2 2 2 3 3 3 3 4 5 5 5 6 6 5 5 6 6 6 6 7 7 8 9
1 1 1 1 1 1 1 1 1 2 2 3 4 5 5 6 5 5 4 3 3 4 4 3 2 3 3 4 4 4 3 3 3 3 4 4 4 5 5 5 5 5 4 4 2 2 1 2 2 3 3 3 3 4 4 5 5 6 6 6 6 7 7 7 6 6 6 7 8
2 2 2 1 1 1 1 1 2 2 2 3 4 5 5 5 5 4 4 3 4 4 4 3 2 3 4 4 4 4 3 3 3 3 4 4 5 5 4 5 5 5 5 5 3 2 1 2 2 3 4 4 3 3 3 4 5 5 6 7 7 7 7 8 7 6 6 6 7
3 3 3 2 2 2 2 2 2 2 3 4 5 5 5 5 5 4 3 4 5 4 4 3 3 3 3 4 4 3 3 3 3 3 3 4 4 4 4 5 5 5 5 5 3 2 2 2 2 3 4 4 4 3 3 4 4 5 6 7 7 8 8 8 8 7 7 7 7
5 5 5 4 3 3 2 2 3 3 3 5 5 5 5 5 5 4 3 4 5 5 4 3 3 3 3 3 3 3 3 3 3 3 3 4 4 4 4 5 5 5 5 4 3 3 3 3 3 3 4 4 5 4 4 3 4 4 5 6 7 7 8 8 8 7 8 8 8
7 6 6 5 5 4 4 3 3 4 4 5 6 5 5 5 5 4 3 4 4 4 3 3 3 3 3 3 3 3 3 2 2 3 3 4 4 4 4 5 5 5 5 5 4 4 4 4 4 4 4 4 5 5 4 4 4 4 4 5 6 7 7 7 7 7 7 8 8
8 7 7 6 6 6 5 5 4 4 5 5 6 6 6 5 5 4 4 4 4 3 3 3 3 3 3 2 2 2 2 2 2 2 3 4 4 4 4 5 5 5 5 5 5 4 4 4 4 4 4 4 5 5 4 4 4 4 4 5 5 6 6 7 7 7 7 7 7
8 7 7 7 7 7 7 6 5 5 5 6 7 6 6 6 5 5 5 4 4 3 4 4 3 3 3 3 2 2 2 2 2 3 4 4 5 5 5 5 5 5 5 5 5 6 6 5 4 4 4 4 5 5 4 4 4 4 4 5 5 5 6 6 6 6 6 6 7
7 7 6 7 7 7 6 6 6 6 6 7 7 6 6 6 6 6 6 5 4 4 5 5 4 3 3 4 3 2 2 3 3 4 4 5 5 5 5 6 5 5 4 5 5 6 7 6 5 4 4 4 4 4 4 4 4 4 4 5 5 5 5 6 6 6 5 6 6
6 6 6 6 6 6 6 6 6 6 6 6 6 6 6 7 6 7 6 6 5 5 6 6 6 5 4 4 4 3 3 3 4 5 5 5 5 5 5 6 5 5 4 5 5 6 7 7 6 5 5 5 5 4 4 4 4 4 5 5 5 5 5 5 5 5 5 5 5
5 5 5 4 5 5 5 5 5 5 5 5 6 6 7 7 7 7 7 7 6 6 5 6 7 6 6 5 5 5 4 3 4 5 5 5 5 5 5 6 5 5 4 5 5 6 6 6 6 6 5 5 5 5 5 5 5 5 5 5 5 5 5 5 5 5 5 5 5
4 4 3 3 3 4 4 4 4 4 5 5 6 6 7 7 7 7 7 7 6 6 5 6 6 7 7 7 7 7 5 4 4 5 5 5 5 6 5 5 5 5 5 5 5 6 6 6 6 6 6 6 6 6 6 6 6 6 6 5 5 5 5 5 5 5 5 5 5
3 2 2 2 2 3 3 3 3 4 4 5 5 6 6 7 7 7 6 6 6 5 5 5 6 7 7 7 8 7 6 5 4 5 5 5 6 6 5 4 4 5 5 6 6 6 6 6 6 6 6 6 7 7 7 7 7 7 7 7 6 6 5 5 4 4 5 5 5
2 2 2 2 2 3 3 3 4 4 5 5 6 6 6 6 7 7 6 6 5 5 5 5 5 6 7 7 7 6 6 6 6 6 5 5 5 5 5 4 4 5 6 6 6 6 6 6 6 6 6 6 7 8 8 7 7 7 8 8 7 7 6 5 4 4 4 5 5
2 2 2 2 2 2 3 3 4 4 5 5 5 5 6 6 6 7 7 7 7 7 6 6 5 6 6 6 5 5 5 6 6 7 6 6 5 5 5 5 5 5 6 6 6 6 6 6 6 6 6 6 7 7 7 7 7 7 7 8 8 8 7 6 5 4 4 5 5
2 2 2 2 2 3 3 3 4 4 4 4 5 5 5 5 6 6 6 7 7 7 7 7 6 6 5 5 5 4 4 4 5 6 7 7 7 6 6 5 5 5 5 6 9 11 12 10 8 6 5 5 6 6 6 6 7 7 7 7 8 8 8 7 6 5 5 5 5
2 2 2 2 2 2 3 3 3 3 4 4 4 5 5 5 5 5 6 6 7 7 6 6 6 5 5 4 4 4 4 4 5 5 6 7 8 7 6 6 5 5 5 7 11 14 15 15 14 11 8 5 5 5 6 6 6 7 7 7 7 7 8 8 8 7 6 5 5
2 2 2 2 2 2 3 2 3 3 4 4 5 5 5 5 5 5 6 6 6 6 5 5 5 5 5 4 4 5 5 5 5 5 5 6 7 7 7 6 5 5 6 10 13 15 16 17 17 16 12 7 5 5 6 6 6 6 6 6 7 7 8 9 9 9 7 6 5
3 3 3 2 3 3 3 3 3 3 4 4 5 5 5 5 6 6 6 6 6 6 5 4 4 4 3 3 4 5 5 5 5 5 5 5 6 6 6 6 5 6 8 12 15 16 17 17 17 17 16 12 7 5 5 6 6 6 6 6 6 7 7 8 8 8 8 7 6
3 3 3 3 3 3 3 3 3 4 4 4 4 4 5 5 6 6 6 6 6 5 5 5 4 3 3 4 4 5 5 5 4 4 4 5 5 6 6 6 6 8 10 14 15 16 17 17 17 18 17 16 9 6 5 5 5 5 5 6 6 6 7 7 7 7 7 7 7
3 3 3 4 4 4 4 3 4 4 4 4 4 5 6 6 6 6 6 6 6 5 5 4 4 4 5 5 5 5 5 5 5 4 4 5 6 6 7 7 7 8 10 14 15 16 16 16 17 17 17 17 12 8 5 5 5 5 5 6 6 7 7 8 8 8 8 7 7
3 3 3 4 5 5 5 4 4 3 3 4 4 5 6 6 6 6 5 5 5 6 5 5 5 5 5 5 4 5 5 6 5 5 5 6 7 7 8 8 7 8 11 14 15 15 16 16 16 16 17 17 13 9 6 5 5 5 6 6 7 7 8 8 8 8 8 8 7
4 4 4 4 5 6 5 4 4 3 3 4 5 5 6 6 6 5 5 5 5 5 5 5 5 6 6 6 5 5 6 6 6 6 6 6 7 7 7 8 8 9 11 14 15 16 16 16 16 16 17 17 13 10 7 6 6 6 6 7 8 8 8 7 7 8 8 8 7
4 4 4 5 6 6 6 5 4 3 3 4 5 5 5 6 6 6 5 5 4 4 4 5 5 5 6 6 6 6 6 7 7 8 8 7 7 7 8 9 8 9 11 15 16 17 17 17 17 17 17 17 13 9 6 6 5 5 6 7 7 8 8 8 8 9 9 9 8
4 4 5 6 6 7 6 5 4 3 4 4 5 5 5 5 6 6 5 5 4 4 4 4 4 4 4 4 5 6 6 7 7 7 8 8 8 8 8 9 7 10 13 16 17 17 18 17 17 17 17 17 12 8 6 6 5 6 7 7 8 8 8 8 9 9 9 9 8
5 5 5 6 7 7 6 5 4 4 4 5 6 6 6 5 5 5 5 5 4 4 4 4 4 4 4 4 4 5 6 7 8 8 8 8 8 9 10 10 10 12 15 18 18 18 18 18 18 18 17 15 10 7 6 6 6 7 8 8 9 9 8 8 8 8 8 8 8
5 5 6 7 7 7 6 6 5 4 5 6 6 7 6 5 5 4 4 5 5 4 4 4 4 4 4 4 5 5 5 6 8 8 9 8 8 9 10 11 11 14 16 18 19 18 18 18 18 18 16 12 8 6 6 6 6 7 8 9 9 9 9 9 8 8 7 7 7
6 6 6 6 7 7 7 6 5 5 6 7 6 6 6 6 5 5 4 4 4 4 5 5 5 5 5 5 5 6 6 6 7 8 9 9 9 9 10 12 12 14 16 18 19 19 19 19 19 18 15 10 7 6 6 5 5 6 7 8 9 9 9 8 8 7 7 7 7
6 6 6 6 7 7 7 6 6 6 7 7 6 5 5 5 5 5 4 4 4 4 5 5 5 6 6 6 6 7 7 7 7 7 8 9 8 9 10 11 12 13 14 17 19 19 20 20 20 18 15 10 7 6 6 5 5 6 7 8 8 9 8 7 6 6 7 7 9
6 6 6 6 7 7 7 7 7 7 7 7 6 6 5 5 5 5 4 4 4 4 5 5 6 6 7 7 7 7 7 8 7 7 8 8 8 9 10 11 12 12 14 17 19 20 20 20 20 19 17 11 8 6 5 5 5 6 7 7 7 8 8 7 6 6 6 8 11
6 5 5 5 6 6 7 7 7 7 6 6 6 6 6 5 5 5 5 4 4 4 5 5 6 7 7 7 7 7 8 9 8 8 8 8 9 10 11 11 11 13 14 17 19 20 20 20 20 20 17 11 7 5 5 5 5 6 7 7 7 7 7 7 6 6 6 7 9
4 4 5 5 6 6 7 7 7 7 6 5 6 6 5 5 5 5 5 4 4 4 5 5 7 7 7 7 7 7 8 9 9 9 8 9 9 10 11 10 11 12 13 15 18 19 20 20 20 20 17 12 8 5 5 4 5 6 7 7 7 7 7 7 6 6 6 6 7
Wind_Direction
242 243 243 244 246 246 245 251 251 245 235 229 240 241 242 245 262 265 262 246 246 252 259 265 270 280 288 293 292 292 294 299 303 305 306 306 310 317 323 328 330 332 332 331 332 334 337 343 345 350 353 352 356 354 351 349 346 345 346 351 352 353 352 352 350 347 346 345 343
249 250 252 257 258 258 260 267 267 263 254 240 239 242 245 249 260 265 265 254 247 252 262 272 275 281 287 289 287 288 291 296 299 301 301 297 296 304 316 325 329 330 331 331 331 333 336 339 348 354 357 355 359 357 354 352 347 346 347 351 353 353 353 354 351 347 344 343 343
253 261 262 262 263 263 264 268 272 271 268 262 257 253 253 252 256 259 260 258 255 258 264 270 274 279 283 287 288 285 284 287 292 296 297 292 294 300 310 319 326 330 332 332 332 331 331 332 344 354 359 356 1 360 356 352 350 348 347 351 352 353 354 353 349 347 344 343 342
238 249 251 249 250 251 255 263 272 274 274 273 277 274 265 256 255 257 262 268 268 262 257 259 270 276 279 282 286 286 284 282 286 291 293 293 294 296 301 310 325 329 330 331 330 329 327 326 333 346 353 355 3 3 358 351 351 350 348 348 350 352 353 350 348 346 344 342 340
230 233 236 241 247 251 254 260 269 272 275 282 292 290 281 268 263 265 271 275 266 259 255 258 266 272 274 274 280 284 287 287 290 293 297 297 293 293 296 302 314 320 324 328 330 329 328 326 327 332 341 349 3 5 359 352 352 351 350 348 351 351 351 349 346 345 344 342 341
227 235 237 239 248 256 261 263 264 268 275 290 293 288 284 278 273 270 268 267 266 266 266 266 269 273 276 277 279 283 286 289 292 297 300 299 296 297 299 299 302 309 317 325 328 328 328 328 329 330 335 342 354 2 1 356 353 353 352 352 353 352 350 348 345 344 344 345 343
200 226 244 249 252 259 266 269 268 273 278 285 278 275 274 274 274 271 268 269 275 277 275 271 273 277 281 284 284 285 287 292 295 298 300 300 299 299 297 294 298 303 310 318 326 329 330 330 331 332 335 338 342 352 358 0 358 356 355 355 354 353 350 348 345 343 344 345 346
187 209 229 244 250 257 265 273 281 286 287 276 266 266 268 272 275 275 275 278 277 274 271 271 269 270 273 277 280 281 285 293 298 300 299 299 300 298 295 294 297 298 299 307 321 328 329 328 329 329 330 333 334 339 346 357 2 360 356 354 353 354 353 349 347 346 346 346 348
183 202 218 234 244 253 261 273 278 281 280 277 270 268 269 272 273 275 276 276 272 270 268 268 266 266 268 270 272 275 279 286 294 297 298 297 298 297 296 296 297 296 295 296 312 322 326 326 326 323 322 326 327 329 335 349 360 359 356 352 351 352 352 352 351 349 349 349 349
299 253 246 265 262 264 270 284 277 273 274 277 276 276 276 277 274 271 268 268 276 278 275 265 267 270 272 270 270 271 273 277 285 292 296 295 294 292 291 292 293 294 294 293 301 315 324 325 321 315 314 317 320 322 329 342 354 356 354 349 348 348 350 352 352 352 352 351 350
322 315 309 300 297 303 317 311 294 282 278 280 282 282 282 280 275 272 271 276 282 280 274 266 266 269 271 271 270 270 272 275 283 290 294 294 291 288 286 284 285 286 287 288 292 305 321 324 317 312 310 308 313 319 327 334 343 348 348 345 343 344 347 350 352 353 352 350 347
337 333 333 327 329 337 338 319 301 294 288 285 285 285 283 280 276 276 279 284 280 276 274 270 265 265 268 271 272 273 277 280 285 290 293 292 291 289 286 283 282 282 282 283 284 291 304 305 307 307 309 308 310 317 324 329 334 338 339 340 340 341 343 345 347 348 348 346 345
356 356 356 354 360 3 354 326 310 302 296 292 288 286 285 284 281 281 282 280 276 277 280 280 270 263 265 270 274 279 284 287 290 291 291 289 290 290 289 286 284 282 282 282 281 282 282 279 285 295 301 304 306 310 317 323 328 330 331 333 335 336 336 337 339 340 341 342 343
17 15 11 6 10 12 5 343 326 316 308 301 295 292 291 291 290 288 282 275 275 278 282 288 280 269 262 265 273 280 285 290 293 293 292 290 289 289 288 287 285 283 282 282 281 277 272 269 270 276 286 294 298 301 306 315 320 321 322 325 327 327 327 328 329 332 336 338 338
24 22 19 16 18 17 10 354 338 327 319 310 303 301 301 299 297 294 288 279 276 278 284 290 287 281 273 266 270 276 283 289 293 294 294 294 291 289 288 288 287 285 283 282 280 274 266 263 263 265 271 280 287 291 297 304 307 310 312 314 315 317 317 317 320 324 329 332 332
26 23 22 22 21 18 11 359 347 335 328 318 314 312 311 306 304 301 295 286 284 286 290 288 286 289 290 281 271 273 281 289 290 292 295 296 295 293 291 290 289 288 286 285 283 277 269 261 259 258 261 268 275 281 288 294 298 301 302 303 305 306 307 309 312 316 321 325 326
24 22 21 23 21 16 10 360 352 344 336 328 324 320 317 313 312 309 303 294 294 297 298 291 287 292 297 295 284 278 281 286 285 286 287 289 291 292 292 290 288 287 286 285 283 281 277 271 264 258 256 260 267 273 279 285 290 292 294 295 297 298 299 302 306 310 314 317 317
22 19 19 20 17 12 6 358 353 347 340 334 329 325 322 320 318 315 311 306 305 304 303 300 297 295 296 295 291 286 282 281 282 281 280 281 283 285 287 286 285 283 282 280 279 279 278 276 273 268 263 262 264 268 272 277 281 284 286 289 291 292 294 297 300 303 306 307 305
21 17 16 15 11 6 2 358 353 347 341 336 333 330 328 326 323 321 320 318 316 313 308 306 305 303 299 295 294 291 286 278 280 280 279 278 279 281 282 283 283 282 279 276 275 276 277 278 277 275 273 272 273 274 275 275 278 281 282 285 287 289 291 293 296 298 298 296 294
21 15 11 7 3 360 357 354 350 345 341 338 337 336 333 330 329 328 327 323 320 317 314 310 308 306 304 301 300 297 291 283 281 281 281 280 280 280 279 281 284 283 280 277 276 277 277 278 277 276 275 275 277 279 280 282 283 283 284 284 284 285 286 289 293 295 294 291 287
18 11 2 355 354 352 350 347 345 342 340 340 340 338 336 334 334 332 328 321 319 319 317 313 309 307 305 304 302 299 295 291 286 283 282 283 281 279 278 281 285 286 285 281 279 278 278 277 276 274 273 274 276 278 280 284 286 287 287 286 284 284 284 286 289 291 290 287 284
7 355 344 337 338 339 341 342 344 344 344 343 342 340 339 337 334 330 326 322 324 324 322 317 311 307 304 302 300 299 298 298 293 287 284 284 283 282 281 282 285 287 287 285 283 282 281 279 276 273 271 273 275 276 278 280 283 286 288 288 287 287 287 287 287 285 284 280 279
338 327 320 313 320 329 337 342 345 347 345 343 341 339 336 334 331 329 328 329 330 329 325 319 313 307 302 298 297 298 300 302 300 296 290 286 285 285 286 284 284 284 284 284 283 282 282 283 279 275 270 270 272 274 275 275 278 282 285 287 288 289 288 287 285 282 279 276 275
319 313 308 306 316 325 333 342 346 345 342 337 334 332 329 328 328 329 330 331 329 326 323 318 313 308 304 300 297 297 299 302 303 302 300 296 292 290 289 288 284 281 280 280 281 280 279 278 277 273 269 265 267 269 270 270 271 274 277 282 285 287 288 286 283 279 276 276 275
313 311 310 310 317 323 332 342 342 336 330 323 323 323 324 324 325 327 327 327 325 322 319 315 312 310 308 306 303 300 298 299 301 303 305 305 302 299 295 292 287 283 280 281 284 285 285 285 283 276 268 263 263 266 267 266 265 265 268 272 277 282 286 288 285 279 272 270 272
315 314 312 309 313 320 327 329 325 319 315 315 319 321 321 320 321 322 322 320 318 316 314 312 310 311 310 310 310 309 307 303 301 302 304 306 307 306 304 300 294 289 286 286 289 291 292 292 291 289 282 267 263 265 268 269 264 261 261 264 268 274 279 285 285 283 278 271 269
321 315 308 304 311 310 308 304 308 311 313 316 318 318 316 315 318 319 318 315 312 310 310 309 307 308 309 309 311 311 310 307 305 303 302 301 303 304 304 302 299 294 292 292 295 296 297 297 296 294 292 282 269 264 265 269 267 264 261 261 263 265 269 274 279 282 283 281 275
314 309 305 309 307 300 296 298 308 311 313 313 313 313 313 315 318 318 316 313 313 313 312 310 306 305 307 309 308 306 305 305 305 304 302 300 300 299 299 299 298 297 297 299 301 302 303 302 300 298 295 291 280 266 259 263 266 266 264 261 261 262 262 265 271 276 281 283 282
304 305 308 309 301 297 297 304 306 306 306 306 309 312 316 318 319 319 318 317 317 317 315 310 309 311 313 310 306 305 305 304 304 305 307 308 304 301 299 297 296 298 301 304 306 307 306 305 303 300 297 295 288 275 260 257 261 263 263 262 260 259 260 261 266 270 274 278 281
300 303 303 300 296 294 294 293 294 296 300 305 312 317 320 321 321 321 320 319 315 311 306 305 309 310 308 305 306 307 307 305 305 307 309 310 308 305 303 301 299 300 303 307 308 308 308 307 305 302 300 297 291 282 268 259 257 257 259 261 259 257 257 259 262 265 268 272 277
298 298 297 295 293 290 287 284 288 294 303 312 318 321 321 321 318 316 314 311 305 302 301 304 306 305 303 302 305 306 306 305 307 308 307 306 305 304 303 302 300 300 302 306 308 308 308 307 306 304 302 299 295 287 273 262 256 254 255 257 257 256 256 257 258 260 261 263 268
295 295 294 294 290 287 285 285 290 299 308 315 317 317 316 313 308 305 302 299 298 301 304 307 307 306 306 308 307 306 306 306 306 305 304 303 303 303 303 303 300 299 302 306 308 309 309 308 306 305 303 301 296 289 276 265 258 254 253 254 255 254 254 255 257 257 256 256 257
291 292 290 289 286 285 286 289 293 301 309 312 311 309 308 305 304 303 301 298 296 297 299 300 302 303 304 306 306 306 305 303 303 302 303 304 304 304 304 304 300 300 303 308 309 310 309 308 307 305 303 302 298 291 280 270 262 258 256 256 254 252 251 251 253 255 254 253 251
287 288 288 284 283 284 286 290 294 301 307 308 305 302 301 302 303 303 302 299 295 291 289 288 289 289 290 292 295 297 299 301 301 303 305 306 307 307 306 305 302 303 306 308 309 309 309 308 307 305 304 302 299 292 283 275 270 265 262 260 258 255 251 248 249 250 251 250 249
281 283 284 283 282 283 285 288 292 298 302 302 300 299 298 298 296 295 294 293 294 291 288 284 282 282 283 284 285 289 293 298 301 303 305 307 309 309 307 305 302 303 306 307 308 308 307 307 306 305 304 303 299 291 283 278 274 270 267 266 264 261 257 253 251 250 249 248 247
272 274 276 279 280 281 282 283 288 292 295 294 295 297 297 296 292 288 286 290 292 291 289 287 287 288 289 289 288 289 291 295 299 302 304 306 308 307 305 303 301 302 304 305 306 306 306 305 305 305 304 302 297 290 284 280 276 272 270 269 268 266 263 260 257 254 251 249 244
264 265 268 273 277 278 278 278 282 285 287 287 289 291 293 294 293 289 287 291 292 291 289 288 289 288 287 287 287 287 288 290 294 298 301 303 304 303 301 300 299 299 301 303 304 304 305 304 304 304 304 301 295 290 286 282 278 275 272 271 270 268 266 264 261 258 255 251 246
261 259 261 267 271 273 274 275 276 277 279 281 283 286 288 292 292 290 288 290 287 287 287 288 287 284 283 283 285 286 287 287 288 291 294 297 297 297 296 296 295 296 297 300 301 302 303 303 303 303 302 297 292 288 285 282 279 276 274 272 272 270 267 266 263 261 258 254 252
258 257 256 260 264 267 269 270 269 270 272 278 282 286 289 291 290 288 286 284 278 278 280 282 281 281 282 285 288 291 291 289 287 286 288 290 290 291 292 292 292 293 294 297 299 300 301 301 301 301 300 296 291 285 282 281 279 276 275 274 274 273 271 267 263 261 260 257 258
255 254 253 253 256 259 262 264 264 265 268 275 281 285 287 289 288 287 286 282 275 271 272 274 276 278 281 286 289 291 293 294 291 288 286 285 286 289 291 290 290 290 292 295 297 298 299 299 299 299 299 295 288 281 277 276 277 277 276 274 274 275 275 271 264 260 259 259 261
251 250 249 249 249 251 254 259 262 264 268 274 278 280 283 286 287 288 287 284 277 273 271 272 275 277 280 284 286 289 292 294 294 292 289 288 287 289 290 288 288 289 290 292 294 295 296 297 297 298 298 296 290 282 275 273 275 276 275 274 272 273 274 275 271 265 261 259 260